This demonstration page uses our WeatherBlox Daily Observations layout. Learn more.

Hourly Observations for September 19, 2020

Temp ( °F °C ) Dew Point ( °F °C ) Humidity (%) Winds ( mph kmh ) Pressure ( in mb ) Visibility ( mi km ) Precip ( " mm )
12:15 am 00:15 Clear 58 14.5 51 10.3 76 76 SSE 9 15 30.14 1021 10 16.0934 0 0
12:35 am 00:35 Clear 58 14.2 51 10.3 78 78 SSE 9 15 30.14 1021 10 16.0934 0 0
12:55 am 00:55 Clear 58 14.2 51 10.3 78 78 SSE 10 17 30.14 1021 10 16.0934 0 0
1:15 am 01:15 Clear 58 14.2 51 10.5 79 79 SSE 8 13 30.15 1021 10 16.0934 0 0
1:35 am 01:35 Clear 58 14.4 51 10.7 79 79 SSE 7 11 30.15 1021 10 16.0934 0 0
1:55 am 01:55 Clear 58 14.5 52 11 80 80 SSE 9 15 30.15 1021 10 16.0934 0 0
2:15 am 02:15 Clear 58 14.2 52 11 81 81 SSE 9 15 30.15 1021 10 16.0934 0 0
2:35 am 02:35 Clear 57 14.1 52 11.1 82 82 SSE 9 15 30.14 1021 10 16.0934 0 0
2:55 am 02:55 Clear 57 14.1 52 11.2 83 83 SSE 10 17 30.13 1020 10 16.0934 0 0
3:15 am 03:15 Clear 57 14.1 52 11.3 83 83 SSE 10 17 30.13 1020 10 16.0934 0 0
3:35 am 03:35 Clear 58 14.2 53 11.5 84 84 SSE 10 17 30.13 1020 10 16.0934 0 0
3:55 am 03:55 Clear 57 14.1 53 11.5 84 84 S 10 17 30.12 1020 10 16.0934 0 0
4:15 am 04:15 Clear 57 13.9 53 11.5 86 86 S 12 19 30.12 1020 10 16.0934 0 0
4:35 am 04:35 Clear 57 13.7 53 11.5 87 87 SSE 10 17 30.12 1020 10 16.0934 0 0
4:55 am 04:55 Clear 56 13.6 53 11.5 87 87 SSE 9 15 30.11 1020 10 16.0934 0 0
5:15 am 05:15 Clear 56 13.5 53 11.5 88 88 SSE 10 17 30.11 1020 10 16.0934 0 0
5:35 am 05:35 Clear 56 13.5 53 11.6 88 88 S 10 17 30.11 1020 10 16.0934 0 0
5:55 am 05:55 Clear 56 13.5 53 11.6 88 88 S 12 19 30.11 1020 10 16.0934 0 0
6:15 am 06:15 Clear 56 13.5 53 11.6 88 88 SSE 12 19 30.1 1019 10 16.0934 0 0
6:35 am 06:35 Clear 56 13.5 53 11.8 90 90 SSE 12 19 30.1 1019 10 16.0934 0 0
6:55 am 06:55 Clear 56 13.2 53 11.6 90 90 SSE 9 15 30.1 1019 10 16.0934 0 0
7:15 am 07:15 Clear 55 13 53 11.6 91 91 SSE 12 19 30.11 1020 10 16.0934 0 0
7:35 am 07:35 Sunny 55 12.9 53 11.7 92 92 SSE 14 22 30.11 1020 10 16.0934 0 0
7:55 am 07:55 Sunny 56 13.2 54 12 93 93 SSE 15 24 30.12 1020 10 16.0934 0 0
8:15 am 08:15 Sunny 56 13.5 54 12 91 91 SSE 14 22 30.12 1020 10 16.0934 0 0
8:35 am 08:35 Sunny 56 13.5 54 12 91 91 SSE 14 22 30.11 1020 10 16.0934 0 0
8:55 am 08:55 Sunny 57 14 55 12.5 91 91 SSE 10 17 30.11 1020 7 11.26538 0 0
9:15 am 09:15 Sunny 59 15.2 55 12.9 86 86 SSE 14 22 30.1 1019 10 16.0934 0 0
9:35 am 09:35 Sunny 61 15.9 55 12.7 81 81 S 14 22 30.09 1019 10 16.0934 0 0
9:55 am 09:55 Sunny 62 16.4 55 12.6 78 78 SSE 18 30 30.09 1019 10 16.0934 0 0
10:15 am 10:15 Sunny 63 17.2 55 12.6 75 75 S 17 28 30.08 1019 10 16.0934 0 0
10:35 am 10:35 Sunny 64 17.9 55 12.6 71 71 S 18 30 30.07 1018 10 16.0934 0 0
10:55 am 10:55 Sunny 65 18.2 55 12.5 70 70 S 20 31 30.07 1018 10 16.0934 0 0
11:15 am 11:15 Sunny 66 18.9 54 12.4 66 66 S 15 24 30.07 1018 10 16.0934 0 0
11:35 am 11:35 Sunny 68 20 55 12.5 62 62 S 16 26 30.06 1018 10 16.0934 0 0
11:55 am 11:55 Sunny 69 20.6 54 12.2 59 59 S 18 30 30.04 1017 10 16.0934 0 0
12:15 pm 12:15 Sunny 71 21.4 54 12.3 56 56 S 20 31 30.03 1017 10 16.0934 0 0
12:35 pm 12:35 Sunny 72 22 53 11.9 53 53 S 22 35 30.02 1017 10 16.0934 0 0
12:55 pm 12:55 Sunny 73 22.7 53 11.7 50 50 S 23 37 30 1016 10 16.0934 0 0
1:15 pm 13:15 Sunny 74 23.4 53 11.5 47 47 SSE 21 33 29.99 1016 10 16.0934 0 0
1:35 pm 13:35 Sunny 74 23.6 53 11.6 47 47 S 15 24 29.99 1015 10 16.0934 0 0
1:55 pm 13:55 Sunny 73 23 53 11.7 49 49 SSE 18 30 29.96 1015 10 16.0934 0 0
2:15 pm 14:15 Sunny 76 24.7 53 11.7 44 44 S 20 31 29.95 1014 10 16.0934 0 0
2:35 pm 14:35 Sunny 77 24.9 52 11.1 42 42 SSE 15 24 29.95 1014 10 16.0934 0 0
2:55 pm 14:55 Sunny 77 25 52 11 42 42 SSE 22 35 29.93 1013 7 11.26538 0 0
3:15 pm 15:15 Sunny 76 24.6 51 10.5 41 41 S 20 31 29.93 1014 7 11.26538 0 0
3:35 pm 15:35 Sunny 76 24.7 51 10.7 41 41 S 17 28 29.91 1013 10 16.0934 0 0
3:55 pm 15:55 Sunny 77 25.1 51 10.8 41 41 S 20 31 29.92 1013 7 11.26538 0 0
4:15 pm 16:15 Sunny 78 25.5 53 11.4 41 41 SSE 20 31 29.9 1013 7 11.26538 0 0
4:35 pm 16:35 Sunny 78 25.5 53 11.5 42 42 SSE 21 33 29.9 1013 7 11.26538 0 0
4:55 pm 16:55 Sunny 78 25.6 50 9.8 37 37 S 21 33 29.89 1012 7 11.26538 0 0
5:15 pm 17:15 Sunny 77 25.2 51 10.3 39 39 S 20 31 29.89 1012 7 11.26538 0 0
5:35 pm 17:35 Sunny 77 25 52 10.9 41 41 S 17 28 29.89 1012 7 11.26538 0 0
5:55 pm 17:55 Sunny 76 24.5 51 10.8 42 42 SSE 18 30 29.89 1012 7 11.26538 0 0
6:15 pm 18:15 Sunny 75 23.8 53 11.5 46 46 SSE 16 26 29.9 1012 7 11.26538 0 0
6:35 pm 18:35 Sunny 74 23.5 53 11.9 48 48 SSE 14 22 29.9 1012 7 11.26538 0 0
6:55 pm 18:55 Sunny 74 23.1 54 12.2 50 50 SSE 16 26 29.9 1013 7 11.26538 0 0
7:15 pm 19:15 Sunny 72 22.3 55 12.5 54 54 SSE 13 20 29.91 1013 7 11.26538 0 0
7:35 pm 19:35 Sunny 71 21.5 55 12.7 57 57 SSE 16 26 29.91 1013 10 16.0934 0 0
7:55 pm 19:55 Clear 69 20.7 55 12.6 60 60 SSE 13 20 29.92 1013 10 16.0934 0 0
8:15 pm 20:15 Clear 69 20.5 55 12.5 60 60 SSE 14 22 29.92 1013 10 16.0934 0 0
8:35 pm 20:35 Clear 67 19.6 55 12.5 64 64 SSE 14 22 29.93 1014 10 16.0934 0 0
8:55 pm 20:55 Clear 67 19.4 55 12.5 65 65 SSE 13 20 29.93 1014 10 16.0934 0 0
9:15 pm 21:15 Clear 66 19 55 12.7 67 67 SSE 13 20 29.95 1014 10 16.0934 0 0
9:35 pm 21:35 Clear 65 18.6 55 12.7 69 69 SSE 13 20 29.95 1014 10 16.0934 0 0
9:55 pm 21:55 Clear 65 18.6 55 12.8 69 69 SSE 14 22 29.96 1015 10 16.0934 0 0
10:15 pm 22:15 Clear 65 18.5 55 13 71 71 SSE 13 20 29.96 1015 10 16.0934 0 0
10:35 pm 22:35 Clear 65 18.5 55 13 71 71 SSE 15 24 29.97 1015 10 16.0934 0 0
10:55 pm 22:55 Clear 65 18.5 55 13 71 71 SSE 13 20 29.97 1015 10 16.0934 0 0
11:15 pm 23:15 Clear 66 18.7 55 12.7 68 68 SSE 14 22 29.97 1015 10 16.0934 0 0
11:35 pm 23:35 Clear 66 19 55 12.7 67 67 SSE 16 26 29.98 1015 10 16.0934 0 0
11:55 pm 23:55 Clear 65 18.6 55 12.6 68 68 SSE 17 28 29.97 1015 10 16.0934 0 0

Powered by AerisWeather